This demonstration page uses our WeatherBlox Daily Observations layout. Learn more.

Left ArrowRight Arrow

39.01783, -85.05884

Hourly Observations for April 9, 2018

Temp ( °F °C ) Dew Point ( °F °C ) Humidity (%) Winds ( mph kmh ) Pressure ( in mb ) Visibility ( mi km ) Precip ( " mm )
12:52 am 00:52 Cloudy 39 3.9 20 -6.7 46 46 ESE 8 13 30.03 1017 10 16 N/A
1:31 am 01:31 Cloudy with Light Snow 34 1.1 33 0.6 97 97 SSE 10 17 30.09 1019 2 3 N/A
1:40 am 01:40 Cloudy with Light Snow 34 1.1 34 1.1 100 100 SSE 7 11 30.09 1019 2 3 N/A
1:52 am 01:52 Cloudy with Light Snow 34 1.1 34 1.1 100 100 ESE 3 6 30.08 1019 3 4 N/A
2:10 am 02:10 Cloudy with Light Snow 33 0.6 33 0.6 100 100 SSE 3 6 30.12 1020 2 3 N/A
2:31 am 02:31 Cloudy with Light Snow 32 undefined 32 undefined 100 100 N N/A 30.15 1021 1 2 0.02 0.51
2:52 am 02:52 Cloudy with Light Snow 32 undefined 31 -0.6 96 96 E 3 6 30.09 1019 1 2 0.04 1.02
3:27 am 03:27 Cloudy with Light Snow 32 undefined 31 -0.6 96 96 E 7 11 30.12 1020 1 2 0.02 0.51
3:52 am 03:52 Cloudy with Light Snow 32 undefined 32 undefined 100 100 E 8 13 30.06 1018 1 2 0.03 0.76
4:33 am 04:33 Cloudy with Light Snow 32 undefined 32 undefined 100 100 E 10 17 30.09 1019 2 3 0.01 0.25
4:52 am 04:52 Cloudy with Light Snow 32 undefined 32 undefined 100 100 E 9 15 30.05 1018 3 4 0.01 0.25
5:06 am 05:06 Cloudy with Light Snow 32 undefined 32 undefined 100 100 E 9 15 30.09 1019 3 5 0.01 0.25
5:31 am 05:31 Cloudy with Light Snow 32 undefined 32 undefined 100 100 E 10 17 30.09 1019 8 13 0.01 0.25
5:52 am 05:52 Cloudy with Light Snow 32 undefined 32 undefined 100 100 E 10 17 30.04 1017 6 10 0.01 0.25
6:52 am 06:52 Cloudy with Light Snow 33 0.6 33 0.6 100 100 E 8 13 30.04 1017 7 11 N/A
7:25 am 07:25 Cloudy 33 0.6 33 0.6 100 100 E 7 11 30.09 1019 9 14 N/A
7:28 am 07:28 Cloudy 33 0.6 33 0.6 100 100 E 7 11 30.09 1019 8 13 N/A
7:52 am 07:52 Cloudy 33 0.6 33 0.6 100 100 E 8 13 30.06 1018 9 14 N/A
8:26 am 08:26 Cloudy 33 0.6 30 -1.1 89 89 ESE 9 15 30.12 1020 7 11 N/A
8:52 am 08:52 Cloudy 33 0.6 31 -0.6 92 92 SE 8 13 30.07 1018 8 13 N/A
9:36 am 09:36 Cloudy 34 1.1 31 -0.6 89 89 SSE 6 9 30.15 1021 7 11 N/A
9:52 am 09:52 Cloudy 34 1.1 31 -0.6 89 89 SSE 6 9 30.09 1019 7 11 N/A
10:32 am 10:32 Cloudy 34 1.1 32 undefined 92 92 S 3 6 30.15 1021 8 13 N/A
10:52 am 10:52 Cloudy 35 1.7 32 undefined 89 89 SSW 3 6 30.12 1020 8 13 N/A
11:52 am 11:52 Cloudy 36 2.2 33 0.6 89 89 N N/A 30.11 1020 10 16 N/A
12:52 pm 12:52 Cloudy 40 4.4 34 1.1 79 79 W 7 11 30.11 1020 10 16 N/A
12:59 pm 12:59 Cloudy 40 4.4 34 1.1 79 79 NW 8 13 30.12 1020 10 16 N/A
1:52 pm 13:52 Cloudy 41 5 32 undefined 70 70 NW 9 15 30.11 1020 10 16 N/A
2:52 pm 14:52 Cloudy 41 5 31 -0.6 67 67 NW 10 17 30.11 1020 10 16 N/A
3:18 pm 15:18 Cloudy 40 4.4 31 -0.6 70 70 NW 9 15 30.15 1021 10 16 N/A
3:52 pm 15:52 Cloudy 41 5 31 -0.6 67 67 WNW 6 9 30.12 1020 10 16 N/A
4:20 pm 16:20 Cloudy 40 4.4 30 -1.1 68 68 NW 8 13 30.15 1021 10 16 N/A
4:52 pm 16:52 Cloudy 41 5 30 -1.1 65 65 NW 6 9 30.14 1021 10 16 N/A
5:52 pm 17:52 Cloudy 41 5 30 -1.1 65 65 WNW 7 11 30.15 1021 10 16 N/A
6:52 pm 18:52 Cloudy 41 5 30 -1.1 65 65 N 5 7 30.15 1021 10 16 N/A
7:52 pm 19:52 Cloudy 41 5 30 -1.1 65 65 NNW 5 7 30.16 1021 10 16 N/A
8:52 pm 20:52 Mostly Cloudy 39 3.9 30 -1.1 70 70 N 6 9 30.19 1022 10 16 N/A
9:52 pm 21:52 Cloudy 39 3.9 31 -0.6 73 73 NNW 3 6 30.22 1023 10 16 N/A
10:52 pm 22:52 Cloudy 39 3.9 32 undefined 76 76 N 6 9 30.23 1024 10 16 N/A
11:52 pm 23:52 Cloudy 39 3.9 31 -0.6 73 73 N 3 6 30.23 1024 10 16 N/A

Powered by AerisWeather